This demonstration page uses our WeatherBlox Daily Observations layout. Learn more.

Hourly Observations for April 7, 2018

Temp ( °F °C ) Dew Point ( °F °C ) Humidity (%) Winds ( mph kmh ) Pressure ( in mb ) Visibility ( mi km ) Precip ( " mm )
12:15 am 00:15 Clear 18 -8 11 -11.4 77 77 N 5 7 30.48 1032 10 16.0934 0 0
12:35 am 00:35 Partly Cloudy 17 -8.3 11 -11.5 78 78 Calm 30.48 1032 10 16.0934 0 0
12:55 am 00:55 Clear 17 -8.5 12 -11.3 80 80 Calm 30.45 1031 10 16.0934 0 0
1:15 am 01:15 Clear 16 -8.7 11 -11.5 80 80 N 3 6 30.45 1031 10 16.0934 0 0
1:35 am 01:35 Clear 16 -8.8 10 -12 78 78 N 7 11 30.48 1032 10 16.0934 0 0
1:55 am 01:55 Clear 15 -9.3 10 -12 81 81 N 5 7 30.48 1032 10 16.0934 0 0
2:15 am 02:15 Clear 15 -9.6 10 -12.2 82 82 NNW 5 7 30.45 1031 10 16.0934 0 0
2:35 am 02:35 Clear 14 -10.2 9 -12.6 83 83 NNW 5 7 30.48 1032 10 16.0934 0 0
2:55 am 02:55 Clear 13 -10.6 9 -12.6 85 85 NNW 3 6 30.48 1032 10 16.0934 0 0
3:15 am 03:15 Clear 12 -11.2 8 -13.1 86 86 NNW 5 7 30.48 1032 10 16.0934 0 0
3:35 am 03:35 Clear 12 -11.1 8 -13.1 85 85 NNW 5 7 30.48 1032 10 16.0934 0 0
3:55 am 03:55 Clear 12 -11.1 8 -13.1 85 85 NNW 7 11 30.48 1032 10 16.0934 0 0
4:15 am 04:15 Clear 12 -11 8 -13.2 84 84 NNW 6 9 30.48 1032 10 16.0934 0 0
4:35 am 04:35 Clear 11 -11.5 8 -13.6 85 85 NNW 3 6 30.45 1031 10 16.0934 0 0
4:55 am 04:55 Clear 10 -12 7 -13.7 87 87 Calm 30.45 1031 10 16.0934 0 0
5:15 am 05:15 Clear 10 -12.3 7 -14 87 87 Calm 30.48 1032 10 16.0934 0 0
5:35 am 05:35 Clear 10 -12.4 7 -14 88 88 Calm 30.48 1032 10 16.0934 0 0
5:55 am 05:55 Clear 10 -12.5 7 -14 89 89 Calm 30.45 1031 10 16.0934 0 0
6:15 am 06:15 Clear 10 -12.4 7 -13.8 89 89 WNW 3 6 30.45 1031 10 16.0934 0 0
6:35 am 06:35 Clear 10 -12.5 7 -14 89 89 WNW 3 6 30.45 1031 10 16.0934 0 0
6:55 am 06:55 Clear 9 -12.6 7 -14.1 89 89 NW 3 6 30.45 1031 10 16.0934 0 0
7:15 am 07:15 Sunny 9 -12.7 7 -14.1 89 89 Calm 30.45 1031 10 16.0934 0 0
7:35 am 07:35 Sunny 8 -13.1 6 -14.5 89 89 Calm 30.5 1033 10 16.0934 0 0
7:55 am 07:55 Sunny 10 -12.4 7 -13.9 89 89 W 3 6 30.48 1032 10 16.0934 0 0
8:15 am 08:15 Sunny 13 -10.8 9 -12.7 86 86 WNW 3 6 30.48 1032 10 16.0934 0 0
8:35 am 08:35 Sunny 14 -9.8 10 -12.2 83 83 Calm 30.45 1031 10 16.0934 0 0
8:55 am 08:55 Sunny 16 -8.8 11 -11.9 79 79 Calm 30.45 1031 10 16.0934 0 0
9:15 am 09:15 Sunny 18 -7.9 10 -12.4 70 70 Calm 30.45 1031 10 16.0934 0 0
9:35 am 09:35 Sunny 18 -7.6 9 -13 66 66 Calm 30.45 1031 10 16.0934 0 0
9:55 am 09:55 Sunny 19 -7.2 10 -12.5 66 66 Calm 30.45 1031 10 16.0934 0 0
10:15 am 10:15 Sunny 20 -6.6 8 -13.2 60 60 SE 3 6 30.42 1030 10 16.0934 0 0
10:35 am 10:35 Sunny 21 -6.1 9 -12.6 60 60 SSE 3 6 30.42 1030 10 16.0934 0 0
10:55 am 10:55 Sunny 22 -5.8 10 -12.5 60 60 SSE 3 6 30.42 1030 10 16.0934 0 0
11:15 am 11:15 Sunny 22 -5.4 10 -12.2 59 59 Calm 30.42 1030 10 16.0934 0 0
11:35 am 11:35 Sunny 24 -4.6 12 -11 61 61 S 6 9 30.39 1029 10 16.0934 0 0
11:55 am 11:55 Sunny 24 -4.2 13 -10.8 60 60 S 5 7 30.36 1028 10 16.0934 0 0
12:15 pm 12:15 Sunny 26 -3.4 13 -10.5 58 58 SW 6 9 30.36 1028 10 16.0934 0 0
12:35 pm 12:35 Sunny 26 -3.2 11 -11.7 52 52 Calm 30.33 1027 10 16.0934 0 0
12:55 pm 12:55 Sunny 28 -2.4 13 -10.4 55 55 SW 5 7 30.33 1027 10 16.0934 0 0
1:15 pm 13:15 Sunny 29 -1.9 13 -10.6 52 52 S 8 13 30.27 1025 10 16.0934 0 0
1:35 pm 13:35 Sunny 29 -1.4 12 -11 48 48 SE 6 9 30.27 1025 10 16.0934 0 0
1:55 pm 13:55 Sunny 31 -0.4 13 -10.6 46 46 SW 7 11 30.24 1024 10 16.0934 0 0
2:15 pm 14:15 Sunny 32 -0.1 13 -10.6 45 45 S 6 9 30.24 1024 10 16.0934 0 0
2:35 pm 14:35 Sunny 32 0 13 -10.3 46 46 SSE 8 13 30.24 1024 10 16.0934 0 0
2:55 pm 14:55 Sunny 33 0.4 13 -10.8 43 43 S 7 11 30.24 1024 10 16.0934 0 0
3:15 pm 15:15 Sunny 33 0.4 11 -11.5 41 41 SSE 6 9 30.24 1024 10 16.0934 0 0
3:35 pm 15:35 Sunny 33 0.8 12 -11 41 41 SSW 3 6 30.21 1023 10 16.0934 0 0
3:55 pm 15:55 Sunny 35 1.5 13 -10.8 40 40 S 9 15 30.18 1022 10 16.0934 0 0
4:15 pm 16:15 Sunny 35 1.4 11 -11.9 37 37 S 9 15 30.18 1022 10 16.0934 0 0
4:35 pm 16:35 Sunny 36 2.1 12 -11.2 37 37 SSE 12 19 30.18 1022 10 16.0934 0 0
4:55 pm 16:55 Sunny 36 2 10 -12.2 34 34 S 9 15 30.15 1021 10 16.0934 0 0
5:15 pm 17:15 Sunny 35 1.7 11 -11.4 37 37 S 12 19 30.15 1021 10 16.0934 0 0
5:35 pm 17:35 Sunny 36 2.3 13 -10.8 38 38 S 10 17 30.15 1021 10 16.0934 0 0
5:55 pm 17:55 Sunny 36 2.4 13 -10.6 38 38 S 10 17 30.15 1021 10 16.0934 0 0
6:15 pm 18:15 Sunny 36 2.4 12 -11.2 36 36 S 12 19 30.12 1020 10 16.0934 0 0
6:35 pm 18:35 Sunny 35 1.7 11 -11.6 37 37 SSE 8 13 30.12 1020 10 16.0934 0 0
6:55 pm 18:55 Sunny 36 2 10 -12.2 34 34 S 10 17 30.12 1020 10 16.0934 0 0
7:15 pm 19:15 Sunny 35 1.5 11 -11.8 37 37 S 9 15 30.09 1019 10 16.0934 0 0
7:35 pm 19:35 Sunny 34 1.1 8 -13.4 33 33 SSE 10 17 30.09 1019 10 16.0934 0 0
7:55 pm 19:55 Sunny 33 0.8 10 -12 38 38 S 10 17 30.09 1019 10 16.0934 0 0
8:15 pm 20:15 Clear 32 0 14 -10 47 47 SSE 7 11 30.09 1019 10 16.0934 0 0
8:35 pm 20:35 Clear 31 -0.5 15 -9.5 51 51 SSE 7 11 30.12 1020 10 16.0934 0 0
8:55 pm 20:55 Clear 31 -0.7 16 -9 54 54 SSE 7 11 30.12 1020 10 16.0934 0 0
9:15 pm 21:15 Clear 30 -1 16 -8.7 56 56 SSE 7 11 30.12 1020 10 16.0934 0 0
9:35 pm 21:35 Clear 30 -1.1 17 -8.6 57 57 SSE 7 11 30.12 1020 10 16.0934 0 0
9:55 pm 21:55 Clear 30 -1 16 -9 55 55 SSE 9 15 30.12 1020 10 16.0934 0 0
10:15 pm 22:15 Clear 30 -1.2 15 -9.2 55 55 SSE 9 15 30.09 1019 10 16.0934 0 0
10:35 pm 22:35 Clear 30 -1.2 16 -9 56 56 SSE 10 17 30.09 1019 10 16.0934 0 0
10:55 pm 22:55 Clear 30 -1 16 -9 55 55 SSE 12 19 30.09 1019 10 16.0934 0 0
11:15 pm 23:15 Clear 31 -0.7 16 -8.8 55 55 SSE 12 19 30.03 1017 10 16.0934 0 0
11:35 pm 23:35 Clear 31 -0.6 16 -9.1 53 53 SSE 14 22 30.03 1017 10 16.0934 0 0
11:55 pm 23:55 Partly Cloudy 31 -0.5 16 -9.1 53 53 SSE 14 22 30.03 1017 10 16.0934 0 0

Powered by AerisWeather